Wind_Speed
17 12 9 7 4 3 2 1 1 3 4 5 6 6 7 8 10 12 13 13 13 13 12 12 11 10 9 8 7 6 5 5 5 4 4 4 4 4 4 4 5 5
20 15 13 11 8 6 4 2 1 1 2 4 4 5 6 6 8 9 10 12 12 13 14 14 14 14 13 12 11 11 10 9 8 8 7 7 6 5 4 3 2 2
22 18 16 14 11 9 7 5 3 2 1 1 1 2 3 4 5 6 7 8 9 10 11 11 12 13 13 13 13 13 12 12 11 11 10 10 9 7 7 5 4 3
23 20 17 16 15 12 10 9 7 5 4 3 2 1 1 2 3 4 4 5 5 5 6 7 7 9 9 10 10 10 10 10 10 10 10 10 10 10 9 8 7 6
23 21 19 18 17 15 14 12 10 9 8 6 4 3 3 3 3 3 3 3 3 3 4 3 3 3 4 4 5 6 6 6 7 7 7 8 8 8 8 8 8 7
25 24 23 20 18 17 16 14 13 12 10 9 7 5 5 4 5 5 6 6 6 6 5 5 4 4 3 2 1 0 2 2 3 4 4 4 4 4 4 5 5 5
28 27 25 21 19 19 17 15 15 13 12 10 8 7 6 6 6 6 6 7 8 9 9 8 8 8 7 7 6 6 5 4 3 2 2 2 2 1 0 1 2 2
29 29 27 23 21 20 18 18 16 14 13 11 9 8 8 8 8 7 7 9 11 12 12 12 11 11 10 10 10 10 9 9 8 7 6 5 5 5 4 4 5 6
28 29 29 28 24 21 19 19 16 15 15 13 11 9 10 11 11 11 12 13 14 15 15 14 14 14 13 13 13 12 12 11 11 10 9 9 9 9 9 8 8 8
27 31 32 30 26 24 22 21 19 16 14 11 10 11 12 13 14 16 18 18 16 16 17 17 17 17 16 15 14 14 13 13 13 12 11 11 10 11 11 10 10 10
25 31 31 26 22 22 21 19 18 15 13 12 12 12 14 16 18 20 21 20 18 17 17 18 20 20 19 17 16 16 16 15 13 12 11 11 12 12 11 11 11 12
21 22 21 17 17 20 20 19 19 18 18 18 15 14 17 19 21 21 20 18 17 16 17 17 19 21 22 21 20 18 18 18 17 15 13 12 12 13 13 12 11 12
16 14 15 15 16 20 21 20 21 21 19 17 15 16 19 21 21 20 18 17 16 16 17 17 15 16 18 20 20 20 20 20 20 19 17 16 15 15 16 16 14 14
11 11 14 15 17 19 20 20 22 22 19 18 18 20 21 22 20 18 17 17 18 18 18 16 15 14 13 14 17 20 21 21 21 20 18 17 16 15 17 18 19 19
7 8 9 10 11 14 15 17 19 20 19 19 20 20 20 20 19 18 18 19 19 19 18 17 16 15 13 13 13 16 18 19 20 20 19 17 17 16 17 18 20 22
5 5 6 6 7 8 10 12 13 14 15 16 16 16 17 18 18 19 19 19 18 17 16 17 16 15 16 16 15 15 16 16 18 19 20 21 21 21 21 21 22 23
7 7 7 7 7 8 9 10 11 12 12 13 14 14 15 16 17 17 17 17 16 16 16 16 17 17 18 18 18 18 19 19 20 21 22 24 24 25 24 25 26 27
10 10 10 10 10 11 11 12 13 13 14 15 15 16 16 17 17 17 18 18 18 18 18 18 18 19 19 19 19 20 21 22 24 25 26 27 28 28 28 28 28 28
12 12 12 12 12 13 14 15 16 16 17 17 17 18 19 19 19 20 20 20 21 21 21 21 21 22 22 22 22 22 23 25 26 27 28 29 30 31 31 31 31 31
14 14 14 14 14 15 15 16 16 17 17 18 18 19 20 21 21 22 22 23 23 24 24 24 24 25 25 26 26 26 27 28 28 29 29 29 30 31 31 31 31 30
16 16 16 16 16 17 17 17 17 17 17 17 18 19 19 20 22 22 23 24 25 26 26 25 25 25 25 25 25 26 27 28 28 28 28 28 28 29 29 29 28 27
18 18 18 18 18 18 18 18 18 18 18 18 18 18 19 20 21 22 23 24 25 25 26 25 24 24 24 24 24 25 26 27 27 26 26 27 27 27 27 27 27 26
21 21 20 19 19 19 19 19 19 19 19 19 19 19 20 21 22 23 24 24 24 24 25 25 25 25 24 25 25 26 26 26 26 26 27 27 28 28 27 26 26 27
22 22 21 21 21 21 22 22 22 22 22 21 21 21 22 23 24 24 25 25 25 25 25 25 25 25 25 25 25 25 25 25 25 25 26 26 27 28 27 27 26 28
23 22 22 22 22 23 23 24 24 23 23 23 23 23 24 24 25 26 26 27 26 26 26 26 26 26 26 26 26 26 26 25 25 25 25 26 26 26 27 27 28 29
23 24 24 25 25 25 25 25 25 25 25 25 25 26 26 26 27 27 28 29 29 28 28 28 28 28 28 29 29 29 28 28 27 27 27 27 28 28 28 29 30 31
Wind_Direction
216 198 183 182 195 227 259 315 38 36 38 46 42 39 48 60 71 77 81 84 86 86 86 85 84 83 82 83 85 87 88 87 86 87 94 103 120 142 160 176 187 199
219 200 177 176 191 207 215 219 207 67 44 47 47 41 41 47 56 66 74 80 84 86 87 87 86 85 82 79 77 75 72 71 70 71 73 75 78 87 103 126 158 193
218 208 186 176 189 205 205 208 218 203 175 88 56 41 42 43 46 53 59 64 74 81 85 87 88 88 86 84 81 78 76 73 71 71 70 70 70 70 72 72 72 69
220 214 198 181 184 200 208 209 214 216 212 213 221 282 356 7 16 35 41 41 48 57 67 79 86 89 91 91 91 88 86 83 80 77 75 75 73 71 70 68 65 62
227 222 211 194 186 197 210 211 215 221 222 226 237 257 276 301 319 330 337 346 355 358 9 24 38 62 84 95 101 102 103 101 97 95 92 89 85 82 80 76 71 67
232 227 218 203 190 198 211 214 219 226 229 234 242 256 270 285 301 309 313 311 307 307 307 306 307 309 308 309 313 321 143 143 140 138 130 117 109 99 90 83 76 70
234 229 223 212 198 202 213 217 222 226 231 237 242 253 265 277 289 296 305 308 305 297 288 283 282 281 284 288 293 296 294 288 280 259 235 206 190 185 67 25 8 3
232 228 226 224 211 206 215 223 224 223 225 231 235 247 259 264 268 271 283 302 304 294 284 277 274 271 272 277 282 286 291 293 291 290 289 288 285 287 295 305 312 313
228 226 227 227 215 207 218 227 227 226 224 224 225 237 252 256 259 268 281 294 294 288 282 273 269 268 269 273 278 280 281 284 285 284 284 287 290 292 294 297 300 303
224 227 229 227 214 208 217 223 224 225 228 233 236 240 248 256 267 279 287 292 288 281 277 268 263 264 265 266 268 269 273 277 279 279 279 280 282 284 286 289 290 292
226 228 226 223 219 219 226 236 240 239 236 236 240 249 258 267 277 284 289 289 284 278 274 266 258 256 258 257 256 257 261 263 264 266 268 271 274 276 277 279 283 288
229 230 226 227 231 230 234 245 253 250 239 234 241 259 271 277 280 282 284 281 276 275 278 274 264 258 256 255 252 252 255 256 253 248 245 250 259 263 262 264 269 279
221 225 229 232 233 235 241 247 253 253 248 247 257 268 272 275 276 277 276 273 273 277 280 280 276 269 263 257 253 253 257 258 252 245 241 243 249 251 252 254 258 267
230 229 234 236 233 239 249 254 258 262 261 261 265 266 267 268 268 267 266 268 275 279 277 274 275 278 276 266 256 253 257 258 252 246 245 247 250 253 252 250 251 260
233 228 234 240 238 240 247 251 255 260 262 262 262 261 260 258 257 258 261 266 271 271 268 266 270 275 277 273 262 253 254 256 253 250 253 256 259 264 264 260 258 262
216 217 220 226 229 232 238 243 247 251 254 256 255 253 252 252 253 257 260 263 263 262 260 261 264 267 267 267 266 261 259 261 259 258 260 263 265 268 271 272 271 271
237 236 233 231 231 233 237 240 242 244 245 247 249 250 250 251 254 256 259 261 262 262 262 262 263 262 262 264 266 267 268 267 266 264 264 265 266 266 268 270 272 274
246 246 245 243 242 244 245 246 246 246 247 248 249 251 253 254 256 258 261 264 266 267 266 266 265 263 263 265 267 270 272 271 269 268 268 269 269 268 268 269 270 272
251 254 255 255 254 255 255 255 255 255 255 255 254 255 256 257 257 258 259 260 261 262 263 265 266 268 269 271 272 272 272 271 271 270 271 271 271 271 271 270 269 271
256 258 261 263 263 264 263 263 264 263 262 262 261 260 260 260 261 260 260 259 259 259 260 263 265 268 270 271 271 270 270 269 270 270 271 270 270 271 272 271 269 270
255 257 260 263 264 266 266 265 265 264 264 264 264 264 263 263 264 264 264 264 263 263 264 266 268 269 269 269 268 266 266 267 268 269 270 269 269 269 270 270 270 269
249 251 254 257 260 263 264 265 265 265 265 265 265 265 265 264 264 265 265 266 267 268 269 269 270 271 271 271 269 268 267 268 268 269 269 269 269 269 269 269 269 268
243 246 249 251 254 257 259 260 261 261 263 264 265 265 265 265 265 265 265 266 267 269 270 270 271 271 271 271 270 271 270 270 270 270 269 269 269 269 268 267 266 266
243 246 249 251 251 251 252 255 257 258 260 263 264 266 266 266 266 266 266 266 266 266 267 267 267 268 268 268 268 270 271 272 272 272 272 272 272 272 271 268 266 266
251 250 251 251 251 250 250 252 254 256 259 261 264 267 268 270 271 271 270 269 267 267 267 267 267 267 267 267 268 270 271 272 274 275 276 276 275 275 275 271 267 265
255 255 254 253 254 255 255 256 257 258 261 264 266 268 269 272 273 274 273 271 269 269 270 271 272 271 271 270 270 270 271 272 274 276 277 277 276 275 274 272 269 267
Height
3128 3129 3130 3131 3132 3132 3131 3131 3131 3131 3132 3132 3133 3133 3133 3133 3132 3131 3130 3129 3128 3128 3127 3127 3127 3127 3127 3127 3127 3127 3127 3127 3127 3127 3127 3128 3128 3128 3129 3129 3129 3130
3126 3127 3127 3129 3131 3131 3131 3131 3131 3131 3132 3132 3133 3134 3134 3134 3133 3132 3132 3131 3130 3129 3129 3128 3128 3128 3128 3128 3128 3128 3128 3128 3128 3128 3128 3128 3128 3128 3129 3129 3129 3129
3124 3126 3125 3126 3129 3130 3131 3131 3131 3131 3132 3133 3133 3134 3134 3134 3134 3133 3133 3132 3132 3131 3131 3130 3129 3129 3129 3129 3129 3129 3129 3129 3129 3129 3129 3129 3129 3129 3129 3129 3129 3129
3123 3124 3124 3124 3126 3129 3130 3131 3131 3131 3132 3133 3134 3134 3134 3134 3134 3134 3134 3133 3133 3132 3132 3131 3131 3131 3130 3130 3130 3130 3130 3130 3130 3130 3130 3130 3130 3130 3130 3130 3130 3130
3122 3123 3123 3123 3124 3126 3128 3130 3131 3131 3132 3133 3133 3134 3134 3134 3134 3133 3133 3133 3133 3133 3133 3132 3132 3132 3131 3131 3131 3131 3131 3131 3131 3131 3131 3131 3131 3131 3131 3131 3130 3130
3121 3121 3121 3121 3122 3124 3127 3129 3130 3131 3132 3132 3133 3134 3134 3134 3134 3133 3133 3133 3133 3133 3133 3133 3132 3132 3132 3132 3132 3132 3132 3131 3131 3131 3131 3131 3131 3131 3131 3131 3131 3131
3118 3118 3119 3120 3121 3123 3125 3127 3128 3130 3131 3132 3132 3133 3133 3133 3133 3133 3133 3132 3132 3132 3132 3132 3132 3132 3132 3132 3132 3132 3132 3132 3132 3131 3131 3131 3131 3131 3131 3131 3130 3130
3114 3115 3116 3117 3119 3121 3123 3125 3126 3127 3128 3129 3130 3131 3132 3132 3131 3131 3131 3131 3131 3131 3131 3131 3131 3131 3131 3131 3131 3131 3131 3131 3131 3131 3131 3131 3130 3130 3130 3130 3129 3129
3110 3111 3112 3113 3115 3118 3120 3122 3123 3124 3124 3125 3126 3128 3129 3129 3128 3128 3129 3129 3129 3129 3129 3129 3129 3130 3130 3130 3130 3130 3130 3130 3130 3130 3130 3130 3130 3129 3129 3129 3128 3128
3106 3107 3108 3110 3112 3114 3117 3119 3120 3121 3121 3121 3123 3125 3126 3126 3126 3126 3126 3126 3126 3126 3126 3127 3127 3128 3128 3128 3128 3128 3128 3128 3128 3129 3129 3129 3128 3128 3128 3128 3128 3127
3102 3103 3106 3108 3111 3113 3115 3116 3117 3118 3118 3118 3119 3121 3123 3123 3124 3124 3123 3123 3123 3123 3123 3123 3124 3125 3125 3126 3126 3126 3126 3126 3127 3127 3127 3127 3127 3127 3127 3126 3126 3126
3099 3103 3107 3109 3110 3111 3111 3112 3113 3113 3113 3112 3114 3117 3119 3119 3120 3120 3120 3120 3120 3120 3120 3120 3120 3121 3122 3123 3123 3123 3124 3124 3124 3124 3124 3125 3125 3125 3125 3125 3125 3124
3097 3102 3106 3107 3108 3108 3108 3107 3108 3108 3108 3109 3110 3113 3115 3116 3116 3117 3117 3117 3117 3116 3116 3116 3117 3117 3118 3119 3119 3120 3120 3121 3121 3121 3122 3122 3122 3122 3123 3123 3123 3123
3099 3101 3103 3104 3105 3106 3105 3106 3106 3106 3106 3107 3109 3111 3113 3113 3114 3114 3114 3114 3114 3114 3114 3114 3114 3114 3115 3115 3115 3116 3117 3118 3118 3118 3118 3119 3119 3119 3120 3120 3121 3120
3100 3100 3101 3102 3103 3104 3105 3105 3106 3106 3106 3107 3108 3110 3111 3111 3111 3111 3111 3111 3111 3111 3111 3111 3112 3112 3112 3112 3113 3113 3113 3114 3114 3115 3115 3116 3116 3116 3116 3117 3117 3117
3099 3100 3100 3101 3102 3103 3104 3104 3105 3106 3106 3106 3107 3108 3108 3109 3109 3109 3109 3109 3109 3109 3109 3109 3109 3110 3110 3110 3110 3110 3111 3111 3111 3112 3112 3112 3112 3112 3113 3113 3113 3113
3098 3098 3099 3100 3100 3101 3102 3103 3104 3104 3105 3105 3106 3106 3107 3107 3107 3107 3107 3107 3107 3107 3107 3107 3107 3107 3107 3107 3108 3108 3108 3108 3109 3109 3109 3109 3109 3109 3109 3109 3109 3109
3095 3096 3097 3098 3099 3099 3100 3101 3101 3102 3103 3103 3104 3104 3104 3105 3105 3105 3105 3104 3104 3104 3104 3104 3104 3105 3105 3105 3105 3106 3105 3105 3105 3105 3105 3105 3105 3105 3105 3105 3105 3104
3093 3093 3094 3095 3096 3097 3097 3098 3098 3099 3100 3100 3101 3101 3101 3101 3101 3102 3102 3102 3102 3101 3101 3101 3101 3102 3102 3102 3103 3102 3102 3101 3101 3101 3101 3101 3101 3101 3101 3101 3100 3100
3089 3090 3091 3092 3093 3093 3094 3094 3095 3095 3096 3096 3097 3097 3097 3097 3098 3098 3098 3098 3098 3098 3098 3098 3098 3098 3099 3099 3099 3098 3097 3097 3097 3097 3097 3097 3096 3096 3096 3096 3096 3096
3087 3087 3088 3089 3090 3090 3091 3091 3092 3092 3092 3093 3093 3093 3094 3094 3094 3093 3093 3093 3093 3093 3094 3094 3095 3095 3094 3094 3094 3093 3093 3093 3093 3093 3093 3092 3092 3092 3092 3092 3092 3092
3084 3085 3086 3086 3087 3087 3088 3088 3088 3089 3089 3089 3089 3090 3090 3090 3090 3089 3089 3089 3089 3090 3090 3090 3091 3091 3090 3090 3089 3089 3089 3089 3089 3089 3089 3088 3088 3088 3088 3088 3088 3088
3081 3082 3083 3084 3084 3085 3085 3085 3085 3085 3085 3086 3086 3086 3086 3086 3086 3085 3086 3086 3086 3086 3086 3087 3087 3087 3087 3086 3086 3085 3085 3085 3085 3085 3085 3085 3084 3084 3084 3084 3084 3084
3077 3078 3079 3080 3081 3082 3082 3082 3082 3082 3082 3082 3082 3082 3082 3082 3082 3082 3082 3082 3083 3083 3083 3083 3083 3083 3083 3083 3083 3082 3082 3081 3081 3081 3081 3080 3080 3080 3080 3080 3079 3079
3074 3075 3075 3076 3077 3077 3078 3078 3078 3078 3078 3078 3078 3078 3078 3078 3078 3078 3078 3078 3079 3079 3079 3079 3079 3079 3079 3079 3079 3079 3078 3078 3077 3077 3077 3076 3076 3076 3075 3075 3075 3075
3069 3070 3071 3071 3072 3072 3073 3073 3074 3074 3074 3074 3074 3074 3074 3074 3074 3074 3074 3074 3074 3074 3074 3074 3075 3075 3075 3075 3075 3075 3074 3074 3074 3073 3073 3072 3072 3072 3071 3071 3071 3070